Tracking 35051 objects as of 17-Aug-2026
HD Live streaming from Space Station
objects crossing your sky now

STARLINK-3716

Track STARLINK-3716 now!
10-day predictions
STARLINK-3716 is classified as:


NORAD ID: 52092
Int'l Code: 2022-029E
Launch date: March 19, 2022
Source: United States (US)
Launch site: AIR FORCE EASTERN TEST RANGE (AFETR)
Your satellite tracking list
Your tracking list is empty




NASA's NSSDC Master Catalog

Two Line Element Set (TLE):
1 52092U 22029E   26229.58335648  .00063640  00000-0  27376-2 0  9992
2 52092  53.1592  83.8338 0002149 115.2854 130.1798 15.22060006  5815
Source of the keplerian elements: AFSPC